Regional Weather Roundup
Issued by NWS

Home | Current Version | Previous Version | Graphics & Text | Print | Product List | Glossary On
Versions: 1 2 3 4 5 6 7 8 9 10 11 12 13 14 15 16 17 18 19 20 21 22 23 24 25 26 27
000
ASUS45 KBOU 151806
RWRCO

WEATHER ROUNDUP FOR COLORADO
NATIONAL WEATHER SERVICE DENVER/BOULDER CO
1200 PM MDT TUE APR 15 2014

NOTE: "FAIR" INDICATES FEW OR NO CLOUDS BELOW 12000 FEET WITH NO
SIGNIFICANT WEATHER AND/OR OBSTRUCTIONS TO VISIBILITY.

COZ001>005-013-030-031-151900-
...NORTHWEST COLORADO...

CITY           SKY/WX    TMP DP  RH WIND       PRES   REMARKS
CRAIG          PTSUNNY   47  18  31 S13G21    30.04F
HAYDEN         PTSUNNY   43  19  39 S5        30.07F
MEEKER         PTSUNNY   47  22  37 VRB7      30.06F
MOUNT WERNER   PTSUNNY   30   9  40 W10       30.10F WCI  21
STEAMBOAT SPGS PTSUNNY   42  13  31 SE3       30.05F
WALDEN         CLOUDY    36  16  44 S14       30.02S
$$

COZ006>008-011-151900-
...WEST CENTRAL VALLEYS...

CITY           SKY/WX    TMP DP  RH WIND       PRES   REMARKS
GRAND JUNCTION MOSUNNY   50  19  29 E6        30.09F
MONTROSE       SUNNY     49  20  31 NW3       30.11F
EAGLE          MOSUNNY   45  18  33 CALM      30.08F
RIFLE          MOSUNNY   46  16  30 CALM      30.09F
DELTA          SUNNY     51  21  30 SE6       30.11F
NUCLA            N/A     52  16  24 NW5       30.15F
$$

COZ017>023-064>068-151900-
...SOUTHWEST COLORADO...

CITY           SKY/WX    TMP DP  RH WIND       PRES   REMARKS
DURANGO        SUNNY     50   9  19 MISG      30.13F
CORTEZ         SUNNY     56  12  17 SW14      30.12F
PAGOSA SPRINGS SUNNY     47   6  18 CALM      30.14F
TELLURIDE      SUNNY     45   7  21 W6        30.14F
WOLF CREEK PAS SUNNY     32   5  32 SW10G20   30.21F WCI  24
$$

COZ009-010-012-014-032>034-037-058>063-151900-
...CENTRAL COLORADO...

CITY           SKY/WX    TMP DP  RH WIND       PRES   REMARKS
ASPEN          MOSUNNY   48  16  27 N9        30.05F
BUENA VISTA    MOSUNNY   46  13  26 E6        30.03F
COPPER MTN     MOSUNNY   34  10  37 W23G31    30.12S WCI  22
BERTHOUD PASS  FAIR      23  14  68 W40G46    30.06F WCI   3
COTTONWOOD PAS MOSUNNY   45   9  23 NE5G26    30.07F
GUNNISON       SUNNY     39  12  33 E5        30.16F
KREMMLING      MOSUNNY   36  19  51 E8        30.08F
LEADVILLE      MOSUNNY   39  10  30 NW10G17   30.07F
MONARCH PASS   SUNNY     23  10  58 W36G45    30.24R HAZE    WCI   4
SALIDA         MOSUNNY   53   7  15 SW23G35   30.09F
SUNLIGHT       MOSUNNY   34  21  60 CALM      30.15S
WILKERSON PASS MOSUNNY   34  14  44 SW9       30.11F WCI  26
$$

COZ069>075-151900-
...SAN LUIS VALLEY/SANGRE DE CRISTO MOUNTAINS...

CITY           SKY/WX    TMP DP  RH WIND       PRES   REMARKS
ALAMOSA        SUNNY     45   9  23 SE8       30.12F
LA VETA PASS   SUNNY     39  12  33 SW13G28   30.10F
SAGUACHE       SUNNY     45  10  24 S8G17     30.11F
$$

COZ035-036-038>040-151900-
...NORTHERN COLORADO FRONT RANGE...

CITY           SKY/WX    TMP DP  RH WIND       PRES   REMARKS
DENVER INTL AP CLOUDY    57  17  21 SW8       29.90F
DMNS CITY PARK   N/A     60  16  18 SE8       29.87F
AURORA         PTSUNNY   55  21  26 SW9       29.91F
FRONT RANGE AP NOT AVBL
ERIE MUNI ARPT PTSUNNY   59  18  20 E3        29.88F
BOULDER MUN AP PTSUNNY   59  19  21 NE6       29.87F
CENTENNIAL     PTSUNNY   56  19  23 SW7       29.90F
BROOMFIELD     PTSUNNY   55  18  22 SE9       29.90F
FORT COLLINS   CLOUDY    48  28  46 S5        29.91F
LONGMONT       CLOUDY    65  30  27 E9        29.89F
$$

COZ041-046-047-076>085-087-088-151900-
...PIKES PEAK/PALMER DIVIDE AND SOUTHERN FOOTHILLS...

CITY           SKY/WX    TMP DP  RH WIND       PRES   REMARKS
COLO. SPRINGS  CLOUDY    53  15  22 S10       29.97F
A. F. ACADEMY  PTSUNNY   52  11  19 SE8       29.96F
ELLICOTT       NOT AVBL
FALCON         CLOUDY    51  11  20 S6        29.99F
FORT CARSON    PTSUNNY   54  24  31 SE10      29.95F
LIMON          CLOUDY    55  17  22 SW13      29.94F
MONUMENT HILL  PTSUNNY   50  18  27 SW10G17   29.95F
TRINIDAD       SUNNY     57  21  24 VRB5      30.00F
$$

COZ042>045-048>051-090-091-151900-
...NORTHEAST COLORADO...

CITY           SKY/WX    TMP DP  RH WIND       PRES   REMARKS
GREELEY ARPT   CLOUDY    48  30  49 CALM      29.90F
AKRON          CLOUDY    50  30  46 S12G24    29.90F
BURLINGTON     PTSUNNY   57  18  21 SW22      29.95F
WRAY           MOSUNNY   60  25  26 SW9       29.91F
STERLING       CLOUDY    61  32  33 SW13      29.88F
HOLYOKE        MOSUNNY   55  32  41 SW14      29.89F
FORT MORGAN    CLOUDY    58  28  31 S8        29.89F
$$

COZ086-089-092>099-151900-
...SOUTHEAST COLORADO...

CITY           SKY/WX    TMP DP  RH WIND       PRES   REMARKS
PUEBLO         MOSUNNY   58  21  24 SW10      29.95F
LA JUNTA       SUNNY     59  24  26 S12       29.97F
LAMAR          SUNNY     61  23  23 SW14      29.97F
SPRINGFIELD    NOT AVBL
$$



USA.gov is the U.S. government's official web portal to all federal, state and local government web resources and services.